User: anonymous   Login
Location: NJAA Observatory
(40.6819°N, 74.8979°W)
Time: 16:15:30
(UTC-05:00)
Language:

Cosmos 220 Rocket - Orbit

View from above orbital plane
View from above orbital plane
View from above satellite
View from above satellite

Ground track
Ground track

The orbit data is extracted from the following two-line orbital elements,

1  3230U 68040B   16041.87005249 +.00001132 +00000-0 +12125-3 0  9994
2  3230 074.0366 148.1893 0031876 232.8734 126.9535 14.89704428540955
Epoch (UTC): 10 February 2016 20:52:52
Eccentricity: 0.0031876
inclination: 74.0366°
perigee height: 576 km
apogee height: 621 km
right ascension of ascending node: 148.1893°
argument of perigee: 232.8734°
revolutions per day: 14.89704428
mean anomaly at epoch: 126.9535°
orbit number at epoch: 54095

The dashed part of the orbit path shows where the satellite is in the earth's shadow,  

DLR